Retour au catalogue

COSMOS 1640

ActifMilitaireLEO
NORAD 15622·PAYLOAD·🇷🇺 Russia

Lancé Mar 21, 1985 depuis Plesetsk Cosmodrome

Loading…

Prochains Passages (prochaines 24 heures)

TLE

FraisSource: Space-Track

Époque: Sep 14, 2026, 02:13 UTC

1 15622U 85023F   26257.09285334  .00000014  00000-0  18668-3 0  9997
2 15622  74.0556 142.3849 0034191 218.2134 294.4163 12.52841992897450

Suivez COSMOS 1640 en temps réel avec AllMySat

Download on the App Store